GW3385 Weather Reports


time (UTC)temp
C
wind
direction
speed
KPH
gust
KPH
rain 1hr
cm
rain 24hr
cm
rain mn
cm
humidity
%
barometer
mb
20260509212059 20 261 9.7 20.9 0.00 0.00 0.00 75 1011.8
20260509211558 20 236 8.0 16.1 0.00 0.00 0.00 76 1011.9
20260509211059 20 286 4.8 16.1 0.00 0.00 0.00 77 1011.9
20260509210556 20 200 8.0 19.3 0.00 0.00 0.00 76 1011.9
20260509210114 20 159 8.0 19.3 0.00 0.00 0.00 75 1012.0
20260509205556 20 222 6.4 19.3 0.00 0.00 0.00 76 1012.0
20260509205056 20 158 8.0 19.3 0.00 0.00 0.00 76 1012.2
20260509204600 20 242 6.4 19.3 0.00 0.00 0.00 76 1012.2
20260509204056 20 183 8.0 17.7 0.00 0.00 0.00 75 1012.2
20260509203556 20 149 6.4 14.5 0.00 0.00 0.00 76 1012.3
20260509203059 20 250 6.4 17.7 0.00 0.00 0.00 76 1012.3
20260509202556 20 254 6.4 17.7 0.00 0.00 0.00 76 1012.3
20260509202056 20 304 6.4 17.7 0.00 0.00 0.00 77 1012.1
20260509201602 20 269 8.0 17.7 0.00 0.00 0.00 77 1012.2
20260509201056 20 183 8.0 17.7 0.00 0.00 0.00 76 1012.2
20260509200556 20 266 9.7 19.3 0.00 0.00 0.00 77 1012.3
20260509200105 19 196 8.0 19.3 0.00 0.00 0.00 77 1012.3
20260509195557 20 240 9.7 17.7 0.00 0.00 0.00 77 1012.3
20260509195056 20 268 6.4 16.1 0.00 0.00 0.00 77 1012.4
20260509194608 20 256 8.0 17.7 0.00 0.00 0.00 77 1012.4
20260509194056 19 173 8.0 17.7 0.00 0.00 0.00 78 1012.4
20260509193556 20 215 9.7 17.7 0.00 0.00 0.00 76 1012.4
20260509193057 20 198 4.8 19.3 0.00 0.00 0.00 78 1012.4
20260509192600 19 234 4.8 20.9 0.00 0.00 0.00 78 1012.5
20260509192056 19 184 8.0 20.9 0.00 0.00 0.00 78 1012.5
20260509191603 19 298 6.4 14.5 0.00 0.00 0.00 78 1012.5
20260509191057 19 199 6.4 16.1 0.00 0.00 0.00 78 1012.6
20260509190555 19 177 9.7 19.3 0.00 0.00 0.00 78 1012.5
20260509190107 19 204 9.7 19.3 0.00 0.00 0.00 78 1012.8
20260509185556 19 209 8.0 16.1 0.00 0.00 0.00 79 1012.8
20260509185056 19 205 6.4 17.7 0.00 0.00 0.00 79 1012.9
20260509184556 19 178 8.0 19.3 0.00 0.00 0.00 79 1012.9
20260509184057 19 219 6.4 19.3 0.00 0.00 0.00 79 1012.8
20260509183555 19 167 9.7 20.9 0.00 0.00 0.00 78 1012.8
20260509183055 19 294 6.4 20.9 0.00 0.00 0.00 79 1012.8
20260509182555 19 201 6.4 19.3 0.00 0.00 0.00 78 1012.9
20260509182055 19 187 6.4 17.7 0.00 0.00 0.00 79 1012.8
20260509181600 19 299 6.4 17.7 0.00 0.00 0.00 79 1012.8
20260509181057 19 192 8.0 17.7 0.00 0.00 0.00 78 1012.8
20260509180557 19 236 6.4 16.1 0.00 0.00 0.00 79 1012.8
20260509180100 19 263 6.4 16.1 0.00 0.00 0.00 79 1013.0
20260509175556 19 229 6.4 14.5 0.00 0.00 0.00 78 1013.0
20260509175057 19 203 4.8 14.5 0.00 0.00 0.00 78 1012.9
20260509174554 19 199 4.8 14.5 0.00 0.00 0.00 77 1012.9
20260509174055 19 128 4.8 11.3 0.00 0.00 0.00 78 1012.9
20260509173555 19 0 1.6 12.9 0.00 0.00 0.00 79 1012.9
20260509173053 19 190 4.8 12.9 0.00 0.00 0.00 77 1013.0
20260509172557 19 236 3.2 11.3 0.00 0.00 0.00 77 1012.9
20260509172056 19 234 3.2 11.3 0.00 0.00 0.00 77 1013.0
20260509171557 19 221 3.2 9.7 0.00 0.00 0.00 77 1013.0
20260509171057 19 174 1.6 9.7 0.00 0.00 0.00 77 1013.0
20260509170556 19 35 1.6 11.3 0.00 0.00 0.00 78 1012.9
20260509170106 18 169 1.6 11.3 0.00 0.00 0.00 80 1012.9
20260509165556 18 62 4.8 11.3 0.00 0.00 0.00 80 1012.9
20260509165056 18 152 1.6 9.7 0.00 0.00 0.00 81 1012.7
20260509164558 18 0 1.6 6.4 0.00 0.00 0.00 82 1012.8
20260509164056 18 194 1.6 8.0 0.00 0.00 0.00 82 1012.7
20260509163556 17 169 1.6 8.0 0.00 0.00 0.00 83 1012.7
20260509163057 17 105 1.6 8.0 0.00 0.00 0.00 83 1012.7
20260509162556 17 0 0.0 3.2 0.00 0.00 0.00 84 1012.7
20260509162056 17 201 0.0 3.2 0.00 0.00 0.00 85 1012.7
20260509161600 17 0 0.0 3.2 0.00 0.00 0.00 84 1012.7
20260509161055 17 0 0.0 4.8 0.00 0.00 0.00 85 1012.7
20260509160557 17 0 0.0 4.8 0.00 0.00 0.00 86 1012.7
20260509160057 16 0 0.0 6.4 0.00 0.00 0.00 86 1012.7
20260509155556 16 30 1.6 6.4 0.00 0.00 0.00 86 1012.7
20260509155057 16 0 0.0 3.2 0.00 0.00 0.00 87 1012.7
20260509154601 16 0 0.0 1.6 0.00 0.00 0.00 87 1012.7
20260509154057 16 0 0.0 4.8 0.00 0.00 0.00 87 1012.7
20260509153555 16 0 0.0 4.8 0.00 0.00 0.00 88 1012.8
20260509153102 16 199 0.0 4.8 0.00 0.00 0.00 88 1012.9
20260509152557 16 0 0.0 4.8 0.00 0.00 0.00 88 1012.8
20260509152056 16 0 1.6 4.8 0.00 0.00 0.00 88 1012.8
20260509151603 16 301 1.6 4.8 0.00 0.00 0.00 88 1012.7
20260509151056 16 0 0.0 4.8 0.00 0.00 0.00 88 1012.7
20260509150556 16 0 0.0 4.8 0.00 0.00 0.00 89 1012.7
20260509150059 16 0 0.0 3.2 0.00 0.00 0.00 89 1012.8
20260509145556 15 343 0.0 8.0 0.00 0.00 0.00 89 1012.7
20260509145058 15 0 0.0 8.0 0.00 0.00 0.00 89 1012.7
20260509144558 15 347 0.0 4.8 0.00 0.00 0.00 89 1012.7
20260509144056 15 343 0.0 4.8 0.00 0.00 0.00 89 1012.7
20260509143555 15 352 0.0 4.8 0.00 0.00 0.00 90 1012.7
20260509143102 15 340 0.0 4.8 0.00 0.00 0.00 90 1012.6
20260509142555 15 0 1.6 4.8 0.00 0.00 0.00 90 1012.6
20260509142058 15 0 0.0 1.6 0.00 0.00 0.00 90 1012.5
20260509141558 15 0 0.0 4.8 0.00 0.00 0.00 90 1012.5
20260509141056 15 0 0.0 4.8 0.00 0.00 0.00 90 1012.5
20260509140557 15 38 1.6 4.8 0.00 0.00 0.00 90 1012.5
20260509140104 15 0 0.0 4.8 0.00 0.00 0.00 90 1012.6
20260509135556 15 342 0.0 4.8 0.00 0.00 0.00 90 1012.5
20260509135055 15 0 0.0 0.0 0.00 0.00 0.00 90 1012.4
20260509134630 15 0 0.0 3.2 0.00 0.00 0.00 90 1012.4
20260509134059 15 0 0.0 3.2 0.00 0.00 0.00 90 1012.4
20260509133557 15 55 0.0 1.6 0.00 0.00 0.00 90 1012.4
20260509133108 15 0 0.0 1.6 0.00 0.00 0.00 90 1012.4
20260509132556 15 0 0.0 3.2 0.00 0.00 0.00 91 1012.3
20260509132056 15 0 0.0 4.8 0.00 0.00 0.00 91 1012.3
20260509131559 15 54 1.6 4.8 0.00 0.00 0.00 90 1012.3
20260509131056 15 0 0.0 4.8 0.00 0.00 0.00 91 1012.3
20260509130556 15 0 0.0 4.8 0.00 0.00 0.00 90 1012.2
20260509130113 15 0 0.0 4.8 0.00 0.00 0.00 91 1012.2
20260509125557 15 0 0.0 6.4 0.00 0.00 0.00 91 1012.2
20260509125056 15 0 1.6 6.4 0.00 0.00 0.00 91 1012.2
20260509124558 15 65 1.6 4.8 0.00 0.00 0.00 91 1012.1
20260509124116 15 46 0.0 4.8 0.00 0.00 0.00 91 1012.1
20260509123559 15 33 0.0 0.0 0.00 0.00 0.00 91 1012.1
20260509123057 15 0 0.0 6.4 0.00 0.00 0.00 91 1012.1
20260509122555 15 0 0.0 6.4 0.00 0.00 0.00 91 1012.1
20260509122056 15 59 1.6 6.4 0.00 0.00 0.00 91 1012.1
20260509121555 15 0 0.0 0.0 0.00 0.00 0.00 91 1012.0
20260509121056 15 0 0.0 0.0 0.00 0.00 0.00 91 1012.1
20260509120556 15 0 0.0 0.0 0.00 0.00 0.00 91 1012.0
20260509120057 15 0 0.0 4.8 0.00 0.00 0.00 91 1012.0
20260509115555 15 0 0.0 4.8 0.00 0.00 0.00 91 1012.1
20260509115055 15 49 0.0 4.8 0.00 0.00 0.00 91 1012.1
20260509114559 15 49 0.0 4.8 0.00 0.00 0.00 91 1012.1
20260509114057 15 0 0.0 4.8 0.00 0.00 0.00 91 1012.1
20260509113557 15 121 0.0 6.4 0.00 0.00 0.00 91 1012.2
20260509113059 15 124 1.6 6.4 0.00 0.00 0.00 92 1012.1
20260509112556 15 0 1.6 6.4 0.00 0.00 0.00 92 1012.1
20260509112056 15 92 1.6 6.4 0.00 0.00 0.00 91 1012.0
20260509111556 15 118 1.6 6.4 0.00 0.00 0.00 92 1012.1
20260509111056 15 110 0.0 8.0 0.00 0.00 0.00 92 1012.1
20260509110600 15 0 1.6 8.0 0.00 0.00 0.00 92 1012.1
20260509110054 15 29 1.6 6.4 0.00 0.00 0.00 92 1012.1
20260509105557 15 118 1.6 11.3 0.00 0.00 0.00 92 1012.3
20260509105056 15 114 4.8 11.3 0.00 0.00 0.00 92 1012.2
20260509104557 15 101 0.0 6.4 0.00 0.00 0.00 92 1012.3
20260509104056 15 53 0.0 6.4 0.00 0.00 0.00 92 1012.3
20260509103555 15 55 3.2 6.4 0.00 0.00 0.00 92 1012.3
20260509103058 15 98 0.0 0.0 0.00 0.00 0.00 92 1012.3
20260509102557 15 0 0.0 6.4 0.00 0.00 0.00 92 1012.3
20260509102055 15 0 0.0 6.4 0.00 0.00 0.00 92 1012.3
20260509101604 15 67 3.2 6.4 0.00 0.00 0.00 92 1012.4
20260509101057 15 52 0.0 4.8 0.00 0.00 0.00 92 1012.3
20260509100556 15 0 0.0 6.4 0.00 0.00 0.00 92 1012.3
20260509100055 15 46 0.0 6.4 0.00 0.00 0.00 92 1012.4
20260509095556 15 0 1.6 4.8 0.00 0.00 0.00 92 1012.4
20260509095056 15 0 0.0 4.8 0.00 0.00 0.00 92 1012.4
20260509094557 15 92 0.0 4.8 0.00 0.00 0.00 92 1012.5
20260509094056 15 0 1.6 6.4 0.00 0.00 0.00 92 1012.6
20260509093556 15 62 1.6 6.4 0.00 0.00 0.00 92 1012.5
20260509093059 15 0 1.6 4.8 0.00 0.00 0.00 92 1012.6
20260509092556 15 55 1.6 4.8 0.00 0.00 0.00 91 1012.7
20260509092051 15 0 0.0 1.6 0.00 0.00 0.00 92 1012.7
20260509091555 15 0 0.0 0.0 0.00 0.00 0.00 92 1012.7
20260509091054 15 0 0.0 1.6 0.00 0.00 0.00 92 1012.7
20260509090554 15 0 0.0 4.8 0.00 0.00 0.00 91 1012.7
20260509090054 15 0 0.0 4.8 0.00 0.00 0.00 91 1012.7
20260509085552 15 0 0.0 3.2 0.00 0.00 0.00 91 1012.7
20260509085054 15 0 0.0 3.2 0.00 0.00 0.00 91 1012.8
20260509084554 15 52 0.0 3.2 0.00 0.00 0.00 91 1012.8
20260509084051 15 0 0.0 0.0 0.00 0.00 0.00 91 1012.9
20260509083550 15 0 0.0 4.8 0.00 0.00 0.00 91 1012.9
20260509083053 15 0 0.0 4.8 0.00 0.00 0.00 91 1012.8
20260509082551 15 0 3.2 4.8 0.00 0.00 0.00 90 1012.9
20260509082051 15 56 0.0 4.8 0.00 0.00 0.00 90 1012.8
20260509081554 15 0 0.0 4.8 0.00 0.00 0.00 90 1012.9
20260509081052 15 0 0.0 4.8 0.00 0.00 0.00 90 1013.0
20260509080550 15 104 1.6 6.4 0.00 0.00 0.00 90 1013.1
20260509080052 15 0 0.0 6.4 0.00 0.00 0.00 90 1013.1
20260509075551 15 0 1.6 6.4 0.00 0.00 0.00 90 1013.2
20260509075051 15 0 1.6 8.0 0.00 0.00 0.00 90 1013.2
20260509074602 15 0 0.0 8.0 0.00 0.00 0.00 90 1013.2
20260509074051 15 163 0.0 6.4 0.00 0.00 0.00 90 1013.2
20260509073554 15 0 0.0 3.2 0.00 0.00 0.00 91 1013.2
20260509073058 15 0 0.0 6.4 0.00 0.00 0.00 91 1013.1
20260509072553 15 182 3.2 6.4 0.00 0.00 0.00 91 1013.2
20260509072054 15 190 0.0 6.4 0.00 0.00 0.00 91 1013.1
20260509071604 15 0 1.6 6.4 0.00 0.00 0.00 91 1013.2
20260509071054 15 0 0.0 3.2 0.00 0.00 0.00 91 1013.2
20260509070552 15 0 0.0 3.2 0.00 0.00 0.00 91 1013.3
20260509070055 15 281 0.0 4.8 0.00 0.00 0.00 91 1013.3
20260509065554 15 0 1.6 4.8 0.00 0.00 0.00 91 1013.3
20260509065051 15 0 0.0 3.2 0.00 0.00 0.00 91 1013.4
20260509064601 15 0 0.0 3.2 0.00 0.00 0.00 91 1013.4
20260509064051 15 236 0.0 0.0 0.00 0.00 0.00 91 1013.5
20260509063554 15 0 0.0 1.6 0.00 0.00 0.00 91 1013.4
20260509063053 15 0 0.0 4.8 0.00 0.00 0.00 91 1013.4
20260509062554 15 0 0.0 4.8 0.00 0.00 0.00 91 1013.4
20260509062054 15 286 1.6 4.8 0.00 0.00 0.00 91 1013.4
20260509061617 15 286 0.0 1.6 0.00 0.00 0.00 91 1013.3
20260509061051 15 0 0.0 1.6 0.00 0.00 0.00 91 1013.3
20260509060556 15 0 0.0 4.8 0.00 0.00 0.00 91 1013.4
20260509060054 15 0 1.6 4.8 0.00 0.00 0.00 91 1013.4
20260509055556 15 278 0.0 4.8 0.00 0.00 0.00 91 1013.5
20260509055055 15 269 1.6 3.2 0.00 0.00 0.00 91 1013.5
20260509054556 15 0 1.6 4.8 0.00 0.00 0.00 91 1013.4
20260509054055 15 0 1.6 4.8 0.00 0.00 0.00 91 1013.4
20260509053555 15 0 0.0 4.8 0.00 0.00 0.00 91 1013.4
20260509053058 15 217 1.6 6.4 0.00 0.00 0.00 91 1013.5
20260509052556 15 0 1.6 6.4 0.00 0.00 0.00 91 1013.5
20260509052056 14 288 0.0 4.8 0.00 0.00 0.00 91 1013.5
20260509051559 14 294 1.6 4.8 0.00 0.00 0.00 91 1013.4
20260509051056 15 287 0.0 6.4 0.00 0.00 0.00 91 1013.5
20260509050556 14 0 0.0 6.4 0.00 0.00 0.00 91 1013.4
20260509050106 14 254 1.6 6.4 0.00 0.00 0.00 91 1013.4
20260509045556 14 309 3.2 6.4 0.00 0.00 0.00 91 1013.3
20260509045056 15 261 1.6 6.4 0.00 0.00 0.00 91 1013.3
20260509044553 15 252 1.6 6.4 0.00 0.00 0.00 91 1013.3
20260509044056 14 217 1.6 6.4 0.00 0.00 0.00 91 1013.3
20260509043557 14 258 0.0 3.2 0.00 0.00 0.00 91 1013.3
20260509043105 14 0 0.0 4.8 0.00 0.00 0.00 91 1013.2
20260509042556 14 0 0.0 6.4 0.00 0.00 0.00 91 1013.2
20260509042056 14 280 0.0 9.7 0.00 0.00 0.00 91 1013.1
20260509041554 14 271 1.6 11.3 0.00 0.00 0.00 91 1013.1
20260509041057 14 279 3.2 11.3 0.00 0.00 0.00 91 1013.2
20260509040557 15 242 6.4 11.3 0.00 0.00 0.00 90 1013.2
20260509040055 15 0 0.0 8.0 0.00 0.00 0.00 91 1013.1
20260509035556 15 0 1.6 9.7 0.00 0.00 0.00 91 1013.2
20260509035057 15 227 3.2 9.7 0.00 0.00 0.00 91 1013.2
20260509034556 15 275 3.2 12.9 0.00 0.00 0.00 91 1013.2
20260509034056 15 262 1.6 12.9 0.00 0.00 0.00 90 1013.1
20260509033556 15 255 4.8 9.7 0.00 0.00 0.00 90 1013.2
20260509033056 15 194 4.8 11.3 0.00 0.00 0.00 90 1013.0
20260509032556 15 164 4.8 12.9 0.00 0.00 0.00 90 1012.9
20260509032056 15 269 4.8 16.1 0.00 0.00 0.00 90 1012.8
20260509031559 15 0 4.8 16.1 0.00 0.00 0.00 90 1012.8
20260509031056 15 289 4.8 12.9 0.00 0.00 0.00 90 1012.7
20260509030556 15 271 6.4 11.3 0.00 0.00 0.00 90 1012.7
20260509030056 15 241 3.2 12.9 0.00 0.00 0.00 90 1012.5
20260509025601 15 0 4.8 16.1 0.00 0.00 0.00 90 1012.6
20260509025054 15 267 6.4 16.1 0.00 0.00 0.00 90 1012.6
20260509024552 15 265 8.0 16.1 0.00 0.00 0.00 89 1012.6
20260509024051 15 277 6.4 16.1 0.00 0.00 0.00 90 1012.6
20260509023550 15 261 9.7 16.1 0.00 0.00 0.00 89 1012.6
20260509023051 15 278 8.0 16.1 0.00 0.00 0.00 89 1012.5
20260509022554 15 290 6.4 14.5 0.00 0.00 0.00 89 1012.5
20260509022051 15 256 8.0 16.1 0.00 0.00 0.00 89 1012.4
20260509021552 15 288 9.7 20.9 0.00 0.00 0.00 89 1012.5
20260509021051 15 288 8.0 20.9 0.00 0.00 0.00 88 1012.5
20260509020554 15 310 9.7 20.9 0.00 0.00 0.00 89 1012.5
20260509020055 15 257 4.8 16.1 0.00 0.00 0.00 89 1012.4
20260509015551 15 248 8.0 16.1 0.00 0.00 0.00 89 1012.4
20260509015052 15 262 9.7 19.3 0.00 0.00 0.00 88 1012.4
20260509014553 15 277 11.3 19.3 0.00 0.00 0.00 88 1012.4
20260509014053 15 194 4.8 19.3 0.00 0.00 0.00 89 1012.5
20260509013554 15 279 9.7 19.3 0.00 0.00 0.00 88 1012.5
20260509013056 15 277 12.9 19.3 0.00 0.00 0.00 87 1012.5
20260509012554 15 280 11.3 19.3 0.00 0.00 0.00 87 1012.6
20260509012056 15 229 12.9 20.9 0.00 0.00 0.00 87 1012.6
20260509011601 16 259 11.3 20.9 0.00 0.00 0.00 87 1012.5
20260509011054 16 191 11.3 19.3 0.00 0.00 0.00 87 1012.5
20260509010552 16 246 9.7 19.3 0.00 0.00 0.00 86 1012.4
20260509010054 16 286 9.7 20.9 0.00 0.00 0.00 87 1012.5
20260509005551 16 252 11.3 20.9 0.00 0.00 0.00 86 1012.5
20260509005054 16 265 11.3 19.3 0.00 0.00 0.00 84 1012.4
20260509004615 17 271 9.7 19.3 0.00 0.00 0.00 84 1012.5
20260509004052 17 144 6.4 19.3 0.00 0.00 0.00 84 1012.4
20260509003557 17 255 12.9 19.3 0.00 0.00 0.00 83 1012.6
20260509003054 17 284 8.0 24.1 0.00 0.00 0.00 82 1012.5
20260509002554 17 200 8.0 24.1 0.00 0.00 0.00 83 1012.4
20260509002054 17 196 11.3 16.1 0.00 0.00 0.00 81 1012.4
20260509001556 17 215 9.7 19.3 0.00 0.00 0.00 82 1012.4
20260509001055 18 222 8.0 19.3 0.00 0.00 0.00 81 1012.5
20260509000554 18 194 8.0 19.3 0.00 0.00 0.00 80 1012.5
20260509000055 18 278 8.0 16.1 0.00 0.00 0.00 81 1012.4
20260508235552 18 217 8.0 16.1 0.00 0.00 0.00 81 1012.5
20260508235057 18 239 9.7 14.5 0.00 0.00 0.00 81 1012.4
20260508234553 18 245 6.4 20.9 0.00 0.00 0.00 81 1012.5
20260508234054 18 223 4.8 20.9 0.00 0.00 0.00 81 1012.5
20260508233554 18 294 9.7 20.9 0.00 0.00 0.00 80 1012.5
20260508233052 18 286 6.4 19.3 0.00 0.00 0.00 81 1012.5
20260508232551 18 167 8.0 19.3 0.00 0.00 0.00 80 1012.5
20260508232055 18 246 9.7 19.3 0.00 0.00 0.00 80 1012.5
20260508231557 18 241 8.0 19.3 0.00 0.00 0.00 79 1012.7
20260508231055 18 161 9.7 19.3 0.00 0.00 0.00 79 1012.7
20260508230555 18 240 8.0 19.3 0.00 0.00 0.00 78 1012.7
20260508230053 18 197 6.4 20.9 0.00 0.00 0.00 79 1012.8
20260508225554 18 205 11.3 20.9 0.00 0.00 0.00 78 1013.0
20260508225056 18 242 6.4 22.5 0.00 0.00 0.00 79 1013.0
20260508224557 18 267 4.8 22.5 0.00 0.00 0.00 79 1013.1
20260508224054 19 281 6.4 20.9 0.00 0.00 0.00 78 1013.1
20260508223551 18 176 6.4 20.9 0.00 0.00 0.00 79 1013.2
20260508223055 18 226 9.7 20.9 0.00 0.00 0.00 79 1013.3
20260508222550 18 247 6.4 19.3 0.00 0.00 0.00 79 1013.3
20260508222051 18 215 8.0 19.3 0.00 0.00 0.00 78 1013.4
20260508221554 18 163 11.3 22.5 0.00 0.00 0.00 79 1013.3
20260508221051 18 211 8.0 22.5 0.00 0.00 0.00 79 1013.4
20260508220554 18 265 14.5 22.5 0.00 0.00 0.00 78 1013.5
20260508220056 19 232 8.0 19.3 0.00 0.00 0.00 78 1013.6
20260508215550 18 175 9.7 20.9 0.00 0.00 0.00 78 1013.6
20260508215055 18 241 9.7 20.9 0.00 0.00 0.00 78 1013.6
20260508214604 18 289 9.7 20.9 0.00 0.00 0.00 78 1013.7
20260508214054 19 254 8.0 19.3 0.00 0.00 0.00 77 1013.7
20260508213554 19 277 8.0 24.1 0.00 0.00 0.00 77 1013.9
20260508213056 18 200 12.9 24.1 0.00 0.00 0.00 77 1013.9
20260508212550 19 304 9.7 19.3 0.00 0.00 0.00 77 1013.8